| time (UTC) | temp C | wind direction | speed KPH | gust KPH | rain 1hr cm | rain 24hr cm | rain mn cm | humidity % | barometer mb |
| 20260508000100 | 10 | 274 | 30.6 | 0.0 | 0.00 | 0.00 | 0.00 | 58 | 1007.3 |
| 20260507235559 | 10 | 274 | 30.6 | 0.0 | 0.00 | 0.00 | 0.00 | 57 | 1007.3 |
| 20260507235059 | 10 | 277 | 30.6 | 0.0 | 0.00 | 0.00 | 0.00 | 55 | 1007.3 |
| 20260507234559 | 10 | 274 | 30.6 | 0.0 | 0.00 | 0.00 | 0.00 | 56 | 1007.2 |
| 20260507234059 | 10 | 273 | 32.2 | 0.0 | 0.00 | 0.00 | 0.00 | 55 | 1007.1 |
| 20260507233558 | 10 | 272 | 33.8 | 0.0 | 0.00 | 0.00 | 0.00 | 53 | 1007.1 |
| 20260507233058 | 10 | 280 | 35.4 | 0.0 | 0.00 | 0.00 | 0.00 | 53 | 1007.1 |
| 20260507232558 | 10 | 273 | 37.0 | 0.0 | 0.00 | 0.00 | 0.00 | 54 | 1007.1 |
| 20260507232058 | 10 | 286 | 37.0 | 0.0 | 0.00 | 0.00 | 0.00 | 53 | 1007.0 |
| 20260507231600 | 10 | 297 | 37.0 | 0.0 | 0.00 | 0.00 | 0.00 | 51 | 1007.1 |
| 20260507231058 | 10 | 301 | 33.8 | 0.0 | 0.00 | 0.00 | 0.00 | 53 | 1007.1 |
| 20260507230602 | 10 | 290 | 32.2 | 0.0 | 0.00 | 0.00 | 0.00 | 50 | 1007.1 |
| 20260507230104 | 10 | 300 | 32.2 | 0.0 | 0.00 | 0.00 | 0.00 | 49 | 1007.0 |
| 20260507225558 | 10 | 280 | 30.6 | 0.0 | 0.00 | 0.00 | 0.00 | 53 | 1007.1 |
| 20260507225057 | 10 | 304 | 33.8 | 0.0 | 0.00 | 0.00 | 0.00 | 53 | 1007.1 |
| 20260507224603 | 11 | 296 | 35.4 | 0.0 | 0.00 | 0.00 | 0.00 | 51 | 1007.1 |
| 20260507224057 | 11 | 289 | 30.6 | 0.0 | 0.00 | 0.00 | 0.00 | 51 | 1007.0 |
| 20260507223556 | 11 | 278 | 29.0 | 0.0 | 0.00 | 0.00 | 0.00 | 55 | 1007.0 |
| 20260507223056 | 11 | 283 | 33.8 | 0.0 | 0.00 | 0.00 | 0.00 | 56 | 1007.0 |
| 20260507222559 | 11 | 281 | 35.4 | 0.0 | 0.00 | 0.00 | 0.00 | 53 | 1006.9 |
| 20260507222058 | 11 | 275 | 35.4 | 0.0 | 0.00 | 0.00 | 0.00 | 55 | 1007.0 |
| 20260507221556 | 11 | 290 | 35.4 | 0.0 | 0.00 | 0.00 | 0.00 | 50 | 1007.1 |
| 20260507221056 | 11 | 276 | 29.0 | 0.0 | 0.00 | 0.00 | 0.00 | 53 | 1007.0 |
| 20260507220555 | 11 | 262 | 29.0 | 0.0 | 0.00 | 0.00 | 0.00 | 54 | 1007.1 |
| 20260507220056 | 11 | 292 | 29.0 | 0.0 | 0.00 | 0.00 | 0.00 | 52 | 1007.1 |
| 20260507215555 | 11 | 280 | 32.2 | 0.0 | 0.00 | 0.00 | 0.00 | 57 | 1007.1 |
| 20260507215055 | 11 | 285 | 37.0 | 0.0 | 0.00 | 0.00 | 0.00 | 53 | 1007.1 |
| 20260507214604 | 12 | 275 | 35.4 | 0.0 | 0.00 | 0.00 | 0.00 | 51 | 1007.0 |
| 20260507214055 | 12 | 279 | 35.4 | 0.0 | 0.00 | 0.00 | 0.00 | 54 | 1007.0 |
| 20260507213554 | 12 | 265 | 37.0 | 0.0 | 0.00 | 0.00 | 0.00 | 54 | 1007.0 |
| 20260507213056 | 12 | 257 | 35.4 | 0.0 | 0.00 | 0.00 | 0.00 | 54 | 1007.0 |
| 20260507212554 | 12 | 259 | 32.2 | 0.0 | 0.00 | 0.00 | 0.00 | 56 | 1007.0 |
| 20260507212057 | 12 | 277 | 37.0 | 0.0 | 0.00 | 0.00 | 0.00 | 56 | 1007.0 |
| 20260507211559 | 12 | 267 | 37.0 | 0.0 | 0.00 | 0.00 | 0.00 | 55 | 1007.0 |
| 20260507211053 | 12 | 264 | 32.2 | 0.0 | 0.00 | 0.00 | 0.00 | 58 | 1007.0 |
| 20260507210553 | 12 | 265 | 35.4 | 0.0 | 0.00 | 0.00 | 0.00 | 55 | 1007.0 |
| 20260507210100 | 12 | 273 | 35.4 | 0.0 | 0.00 | 0.00 | 0.00 | 56 | 1006.9 |
| 20260507205553 | 12 | 272 | 35.4 | 0.0 | 0.00 | 0.00 | 0.00 | 57 | 1007.0 |
| 20260507205052 | 12 | 278 | 33.8 | 0.0 | 0.00 | 0.00 | 0.00 | 57 | 1007.0 |
| 20260507204555 | 12 | 271 | 33.8 | 0.0 | 0.00 | 0.00 | 0.00 | 60 | 1007.0 |
| 20260507204055 | 12 | 267 | 33.8 | 0.0 | 0.00 | 0.00 | 0.00 | 59 | 1007.0 |
| 20260507203551 | 11 | 263 | 33.8 | 0.0 | 0.00 | 0.00 | 0.00 | 57 | 1006.9 |
| 20260507203105 | 12 | 273 | 35.4 | 0.0 | 0.00 | 0.00 | 0.00 | 59 | 1007.0 |
| 20260507202551 | 11 | 255 | 35.4 | 0.0 | 0.00 | 0.00 | 0.00 | 58 | 1007.0 |
| 20260507202051 | 11 | 276 | 32.2 | 0.0 | 0.00 | 0.00 | 0.00 | 61 | 1007.0 |
| 20260507201558 | 11 | 274 | 29.0 | 0.0 | 0.00 | 0.00 | 0.00 | 58 | 1006.9 |
| 20260507201052 | 11 | 274 | 27.4 | 0.0 | 0.00 | 0.00 | 0.00 | 60 | 1007.1 |
| 20260507200551 | 11 | 302 | 32.2 | 0.0 | 0.00 | 0.00 | 0.00 | 55 | 1007.2 |
| 20260507200104 | 11 | 308 | 38.6 | 0.0 | 0.00 | 0.00 | 0.00 | 50 | 1007.3 |
| 20260507195548 | 12 | 274 | 37.0 | 0.0 | 0.00 | 0.00 | 0.00 | 58 | 1007.2 |
| 20260507195049 | 11 | 265 | 32.2 | 0.0 | 0.00 | 0.00 | 0.00 | 61 | 1007.2 |
| 20260507194548 | 11 | 285 | 25.7 | 0.0 | 0.00 | 0.00 | 0.00 | 61 | 1007.4 |
| 20260507194047 | 11 | 304 | 25.7 | 0.0 | 0.00 | 0.00 | 0.00 | 58 | 1007.4 |
| 20260507193546 | 11 | 283 | 29.0 | 0.0 | 0.00 | 0.00 | 0.00 | 58 | 1007.5 |
| 20260507193049 | 11 | 282 | 32.2 | 0.0 | 0.00 | 0.00 | 0.00 | 55 | 1007.4 |
| 20260507192546 | 11 | 285 | 30.6 | 0.0 | 0.00 | 0.00 | 0.00 | 60 | 1007.5 |
| 20260507192045 | 11 | 317 | 33.8 | 0.0 | 0.00 | 0.00 | 0.00 | 54 | 1007.4 |
| 20260507191546 | 11 | 259 | 35.4 | 0.0 | 0.00 | 0.00 | 0.00 | 60 | 1007.5 |
| 20260507191046 | 11 | 268 | 35.4 | 0.0 | 0.00 | 0.00 | 0.00 | 60 | 1007.4 |
| 20260507190548 | 11 | 271 | 33.8 | 0.0 | 0.00 | 0.00 | 0.00 | 57 | 1007.4 |
| 20260507190048 | 12 | 263 | 33.8 | 0.0 | 0.00 | 0.00 | 0.00 | 61 | 1007.5 |
| 20260507185549 | 12 | 278 | 32.2 | 0.0 | 0.00 | 0.00 | 0.00 | 59 | 1007.6 |
| 20260507185046 | 12 | 264 | 32.2 | 0.0 | 0.00 | 0.00 | 0.00 | 62 | 1007.6 |
| 20260507184547 | 11 | 279 | 30.6 | 0.0 | 0.00 | 0.00 | 0.00 | 64 | 1007.7 |
| 20260507184043 | 11 | 281 | 24.1 | 0.0 | 0.00 | 0.00 | 0.00 | 61 | 1007.7 |
| 20260507183541 | 11 | 259 | 22.5 | 0.0 | 0.00 | 0.00 | 0.00 | 57 | 1007.7 |
| 20260507183047 | 11 | 292 | 25.7 | 0.0 | 0.00 | 0.00 | 0.00 | 59 | 1007.8 |
| 20260507182541 | 11 | 286 | 25.7 | 0.0 | 0.00 | 0.00 | 0.00 | 64 | 1007.9 |
| 20260507182044 | 11 | 296 | 27.4 | 0.0 | 0.00 | 0.00 | 0.00 | 64 | 1008.0 |
| 20260507181539 | 11 | 282 | 29.0 | 0.0 | 0.00 | 0.00 | 0.00 | 59 | 1008.0 |
| 20260507181039 | 11 | 264 | 30.6 | 0.0 | 0.00 | 0.00 | 0.00 | 62 | 1008.1 |
| 20260507180542 | 11 | 275 | 30.6 | 0.0 | 0.00 | 0.00 | 0.00 | 60 | 1008.0 |
| 20260507180046 | 11 | 278 | 29.0 | 0.0 | 0.00 | 0.00 | 0.00 | 65 | 1008.0 |
| 20260507175542 | 10 | 293 | 29.0 | 0.0 | 0.00 | 0.00 | 0.00 | 67 | 1008.1 |
| 20260507175039 | 10 | 296 | 27.4 | 0.0 | 0.00 | 0.00 | 0.00 | 60 | 1008.1 |
| 20260507174539 | 10 | 279 | 29.0 | 0.0 | 0.00 | 0.00 | 0.00 | 64 | 1008.2 |
| 20260507174038 | 10 | 281 | 33.8 | 0.0 | 0.00 | 0.00 | 0.00 | 62 | 1008.3 |
| 20260507173538 | 10 | 281 | 32.2 | 0.0 | 0.00 | 0.00 | 0.00 | 64 | 1008.3 |
| 20260507173038 | 10 | 300 | 30.6 | 0.0 | 0.00 | 0.00 | 0.00 | 61 | 1008.3 |
| 20260507172541 | 10 | 290 | 29.0 | 0.0 | 0.00 | 0.00 | 0.00 | 59 | 1008.4 |
| 20260507172037 | 11 | 288 | 29.0 | 0.0 | 0.00 | 0.00 | 0.00 | 62 | 1008.3 |
| 20260507171537 | 11 | 268 | 32.2 | 0.0 | 0.00 | 0.00 | 0.00 | 63 | 1008.4 |
| 20260507171038 | 11 | 273 | 33.8 | 0.0 | 0.00 | 0.00 | 0.00 | 61 | 1008.4 |
| 20260507170538 | 11 | 274 | 35.4 | 0.0 | 0.00 | 0.00 | 0.00 | 62 | 1008.4 |
| 20260507170038 | 11 | 275 | 32.2 | 0.0 | 0.00 | 0.00 | 0.00 | 59 | 1008.4 |
| 20260507165536 | 11 | 282 | 25.7 | 0.0 | 0.00 | 0.00 | 0.00 | 66 | 1008.5 |
| 20260507165038 | 11 | 261 | 24.1 | 0.0 | 0.00 | 0.00 | 0.00 | 61 | 1008.5 |
| 20260507164542 | 11 | 279 | 27.4 | 0.0 | 0.00 | 0.00 | 0.00 | 62 | 1008.6 |
| 20260507164034 | 10 | 271 | 27.4 | 0.0 | 0.00 | 0.00 | 0.00 | 66 | 1008.5 |
| 20260507163533 | 10 | 279 | 25.7 | 0.0 | 0.00 | 0.00 | 0.00 | 62 | 1008.6 |
| 20260507163033 | 10 | 276 | 25.7 | 0.0 | 0.00 | 0.00 | 0.00 | 66 | 1008.7 |
| 20260507162533 | 10 | 277 | 29.0 | 0.0 | 0.00 | 0.00 | 0.00 | 63 | 1008.7 |
| 20260507162033 | 10 | 275 | 30.6 | 0.0 | 0.00 | 0.00 | 0.00 | 61 | 1008.8 |
| 20260507161532 | 10 | 272 | 29.0 | 0.0 | 0.00 | 0.00 | 0.00 | 64 | 1008.8 |
| 20260507161032 | 10 | 267 | 30.6 | 0.0 | 0.00 | 0.00 | 0.00 | 63 | 1009.0 |
| 20260507160533 | 10 | 252 | 29.0 | 0.0 | 0.00 | 0.00 | 0.00 | 65 | 1009.0 |
| 20260507160032 | 10 | 266 | 22.5 | 0.0 | 0.00 | 0.00 | 0.00 | 64 | 1009.0 |
| 20260507155532 | 10 | 281 | 24.1 | 0.0 | 0.00 | 0.00 | 0.00 | 64 | 1009.1 |
| 20260507155032 | 10 | 286 | 25.7 | 0.0 | 0.00 | 0.00 | 0.00 | 66 | 1009.1 |
| 20260507154532 | 10 | 276 | 20.9 | 0.0 | 0.00 | 0.00 | 0.00 | 66 | 1009.1 |
| 20260507154031 | 10 | 271 | 22.5 | 0.0 | 0.00 | 0.00 | 0.00 | 63 | 1009.1 |
| 20260507153530 | 10 | 297 | 25.7 | 0.0 | 0.00 | 0.00 | 0.00 | 60 | 1009.1 |
| 20260507153033 | 10 | 271 | 30.6 | 0.0 | 0.00 | 0.00 | 0.00 | 65 | 1009.0 |
| 20260507152530 | 10 | 284 | 33.8 | 0.0 | 0.00 | 0.00 | 0.00 | 63 | 1009.2 |
| 20260507152029 | 10 | 270 | 29.0 | 0.0 | 0.00 | 0.00 | 0.00 | 64 | 1009.3 |
| 20260507151528 | 10 | 276 | 22.5 | 0.0 | 0.00 | 0.00 | 0.00 | 66 | 1009.4 |
| 20260507151027 | 10 | 318 | 24.1 | 0.0 | 0.00 | 0.00 | 0.00 | 66 | 1009.5 |
| 20260507150527 | 10 | 328 | 27.4 | 0.0 | 0.00 | 0.00 | 0.00 | 63 | 1009.4 |
| 20260507150028 | 9 | 311 | 29.0 | 0.0 | 0.00 | 0.00 | 0.00 | 65 | 1009.5 |
| 20260507145526 | 9 | 314 | 30.6 | 0.0 | 0.00 | 0.00 | 0.00 | 63 | 1009.5 |
| 20260507145025 | 9 | 333 | 29.0 | 0.0 | 0.00 | 0.00 | 0.00 | 64 | 1009.5 |
| 20260507144530 | 9 | 313 | 29.0 | 0.0 | 0.00 | 0.00 | 0.00 | 62 | 1009.4 |
| 20260507144026 | 9 | 317 | 30.6 | 0.0 | 0.00 | 0.00 | 0.00 | 61 | 1009.3 |
| 20260507143524 | 9 | 302 | 29.0 | 0.0 | 0.00 | 0.00 | 0.00 | 60 | 1009.4 |
| 20260507143031 | 9 | 321 | 29.0 | 0.0 | 0.00 | 0.00 | 0.00 | 60 | 1009.4 |
| 20260507142523 | 9 | 306 | 27.4 | 0.0 | 0.00 | 0.00 | 0.00 | 63 | 1009.4 |
| 20260507142022 | 8 | 305 | 27.4 | 0.0 | 0.00 | 0.00 | 0.00 | 59 | 1009.4 |
| 20260507141522 | 8 | 315 | 24.1 | 0.0 | 0.00 | 0.00 | 0.00 | 64 | 1009.6 |
| 20260507141021 | 8 | 316 | 20.9 | 0.0 | 0.00 | 0.00 | 0.00 | 60 | 1009.6 |
| 20260507140520 | 8 | 326 | 22.5 | 0.0 | 0.00 | 0.00 | 0.00 | 60 | 1009.5 |
| 20260507140021 | 8 | 317 | 22.5 | 0.0 | 0.00 | 0.00 | 0.00 | 59 | 1009.4 |
| 20260507135518 | 8 | 298 | 24.1 | 0.0 | 0.00 | 0.00 | 0.00 | 62 | 1009.5 |
| 20260507135018 | 8 | 310 | 25.7 | 0.0 | 0.00 | 0.00 | 0.00 | 61 | 1009.5 |
| 20260507134519 | 8 | 302 | 24.1 | 0.0 | 0.00 | 0.00 | 0.00 | 58 | 1009.5 |
| 20260507134016 | 7 | 289 | 24.1 | 0.0 | 0.00 | 0.00 | 0.00 | 59 | 1009.5 |
| 20260507133515 | 7 | 319 | 24.1 | 0.0 | 0.00 | 0.00 | 0.00 | 65 | 1009.6 |
| 20260507133015 | 7 | 313 | 25.7 | 0.0 | 0.00 | 0.00 | 0.00 | 61 | 1009.7 |
| 20260507132514 | 7 | 294 | 25.7 | 0.0 | 0.00 | 0.00 | 0.00 | 63 | 1009.7 |
| 20260507132014 | 7 | 295 | 22.5 | 0.0 | 0.00 | 0.00 | 0.00 | 65 | 1009.7 |
| 20260507131516 | 7 | 313 | 19.3 | 0.0 | 0.00 | 0.00 | 0.00 | 62 | 1009.8 |
| 20260507131014 | 7 | 317 | 16.1 | 0.0 | 0.00 | 0.00 | 0.00 | 66 | 1009.7 |
| 20260507130513 | 6 | 319 | 14.5 | 0.0 | 0.00 | 0.00 | 0.00 | 62 | 1009.7 |
| 20260507130013 | 6 | 306 | 14.5 | 0.0 | 0.00 | 0.00 | 0.00 | 62 | 1009.7 |
| 20260507125513 | 6 | 309 | 16.1 | 0.0 | 0.00 | 0.00 | 0.00 | 61 | 1009.8 |
| 20260507125012 | 6 | 314 | 19.3 | 0.0 | 0.00 | 0.00 | 0.00 | 63 | 1009.8 |
| 20260507124512 | 6 | 295 | 20.9 | 0.0 | 0.00 | 0.00 | 0.00 | 69 | 1009.7 |
| 20260507124012 | 6 | 294 | 22.5 | 0.0 | 0.00 | 0.00 | 0.00 | 66 | 1009.7 |
| 20260507123514 | 6 | 312 | 24.1 | 0.0 | 0.00 | 0.00 | 0.00 | 65 | 1009.7 |
| 20260507123013 | 6 | 307 | 20.9 | 0.0 | 0.00 | 0.00 | 0.00 | 66 | 1009.6 |
| 20260507122513 | 6 | 297 | 17.7 | 0.0 | 0.00 | 0.00 | 0.00 | 68 | 1009.6 |
| 20260507122011 | 6 | 317 | 20.9 | 0.0 | 0.00 | 0.00 | 0.00 | 69 | 1009.6 |
| 20260507121509 | 6 | 311 | 22.5 | 0.0 | 0.00 | 0.00 | 0.00 | 70 | 1009.5 |
| 20260507121009 | 6 | 291 | 25.7 | 0.0 | 0.00 | 0.00 | 0.00 | 67 | 1009.6 |
| 20260507120508 | 6 | 310 | 24.1 | 0.0 | 0.00 | 0.00 | 0.00 | 68 | 1009.4 |
| 20260507120009 | 5 | 292 | 20.9 | 0.0 | 0.00 | 0.00 | 0.00 | 71 | 1009.4 |
| 20260507115509 | 5 | 329 | 19.3 | 0.0 | 0.00 | 0.00 | 0.00 | 69 | 1009.4 |
| 20260507115009 | 5 | 320 | 16.1 | 0.0 | 0.00 | 0.00 | 0.00 | 73 | 1009.4 |
| 20260507114509 | 5 | 296 | 16.1 | 0.0 | 0.00 | 0.00 | 0.00 | 71 | 1009.3 |
| 20260507114006 | 5 | 298 | 14.5 | 0.0 | 0.00 | 0.00 | 0.00 | 75 | 1009.3 |
| 20260507113508 | 5 | 305 | 17.7 | 0.0 | 0.00 | 0.00 | 0.00 | 72 | 1009.3 |
| 20260507113012 | 5 | 297 | 19.3 | 0.0 | 0.00 | 0.00 | 0.00 | 75 | 1009.3 |
| 20260507112507 | 5 | 301 | 17.7 | 0.0 | 0.00 | 0.00 | 0.00 | 73 | 1009.3 |
| 20260507112004 | 5 | 283 | 14.5 | 0.0 | 0.00 | 0.00 | 0.00 | 77 | 1009.3 |
| 20260507111504 | 5 | 310 | 12.9 | 0.0 | 0.00 | 0.00 | 0.00 | 78 | 1009.3 |
| 20260507111003 | 5 | 279 | 14.5 | 0.0 | 0.00 | 0.00 | 0.00 | 80 | 1009.2 |
| 20260507110502 | 5 | 308 | 17.7 | 0.0 | 0.00 | 0.00 | 0.00 | 80 | 1009.1 |
| 20260507110003 | 5 | 284 | 19.3 | 0.0 | 0.00 | 0.00 | 0.00 | 82 | 1009.0 |
| 20260507105501 | 5 | 272 | 19.3 | 0.0 | 0.00 | 0.00 | 0.00 | 82 | 1009.1 |
| 20260507105005 | 5 | 284 | 20.9 | 0.0 | 0.00 | 0.00 | 0.00 | 83 | 1009.0 |
| 20260507104601 | 5 | 290 | 24.1 | 0.0 | 0.00 | 0.00 | 0.00 | 85 | 1009.0 |
| 20260507104100 | 5 | 267 | 25.7 | 0.0 | 0.00 | 0.00 | 0.00 | 85 | 1008.9 |
| 20260507103559 | 5 | 272 | 27.4 | 0.0 | 0.00 | 0.00 | 0.00 | 85 | 1008.7 |
| 20260507103058 | 5 | 273 | 27.4 | 0.0 | 0.00 | 0.00 | 0.00 | 86 | 1008.8 |
| 20260507102557 | 5 | 264 | 29.0 | 0.0 | 0.00 | 0.00 | 0.00 | 86 | 1008.7 |
| 20260507102056 | 5 | 273 | 27.4 | 0.0 | 0.00 | 0.00 | 0.00 | 86 | 1008.6 |
| 20260507101603 | 5 | 261 | 25.7 | 0.0 | 0.00 | 0.00 | 0.00 | 86 | 1008.6 |
| 20260507101053 | 5 | 254 | 24.1 | 0.0 | 0.00 | 0.00 | 0.00 | 87 | 1008.5 |
| 20260507100553 | 5 | 252 | 24.1 | 0.0 | 0.00 | 0.00 | 0.00 | 87 | 1008.6 |
| 20260507100056 | 5 | 260 | 24.1 | 0.0 | 0.00 | 0.00 | 0.00 | 87 | 1008.7 |
| 20260507095553 | 5 | 257 | 25.7 | 0.0 | 0.00 | 0.00 | 0.00 | 87 | 1008.7 |
| 20260507095052 | 5 | 269 | 27.4 | 0.0 | 0.00 | 0.00 | 0.00 | 87 | 1008.6 |
| 20260507094552 | 5 | 259 | 25.7 | 0.0 | 0.00 | 0.00 | 0.00 | 88 | 1008.6 |
| 20260507094050 | 5 | 253 | 22.5 | 0.0 | 0.00 | 0.00 | 0.00 | 88 | 1008.7 |
| 20260507093549 | 5 | 267 | 20.9 | 0.0 | 0.00 | 0.00 | 0.00 | 87 | 1008.5 |
| 20260507093050 | 5 | 274 | 20.9 | 0.0 | 0.00 | 0.00 | 0.00 | 87 | 1008.4 |
| 20260507092548 | 5 | 250 | 22.5 | 0.0 | 0.00 | 0.00 | 0.00 | 86 | 1008.5 |
| 20260507092051 | 5 | 259 | 22.5 | 0.0 | 0.00 | 0.00 | 0.00 | 85 | 1008.5 |
| 20260507091548 | 5 | 252 | 24.1 | 0.0 | 0.00 | 0.00 | 0.00 | 85 | 1008.5 |
| 20260507091047 | 5 | 265 | 24.1 | 0.0 | 0.00 | 0.00 | 0.00 | 84 | 1008.6 |
| 20260507090546 | 6 | 275 | 22.5 | 0.0 | 0.00 | 0.00 | 0.00 | 85 | 1008.5 |
| 20260507090048 | 6 | 264 | 22.5 | 0.0 | 0.00 | 0.00 | 0.00 | 84 | 1008.4 |
| 20260507085544 | 6 | 261 | 24.1 | 0.0 | 0.00 | 0.00 | 0.00 | 84 | 1008.5 |
| 20260507085046 | 6 | 258 | 20.9 | 0.0 | 0.00 | 0.00 | 0.00 | 83 | 1008.5 |
| 20260507084553 | 6 | 251 | 20.9 | 0.0 | 0.00 | 0.00 | 0.00 | 83 | 1008.5 |
| 20260507084043 | 6 | 263 | 20.9 | 0.0 | 0.00 | 0.00 | 0.00 | 82 | 1008.5 |
| 20260507083540 | 6 | 266 | 19.3 | 0.0 | 0.00 | 0.00 | 0.00 | 83 | 1008.2 |
| 20260507083040 | 6 | 265 | 19.3 | 0.0 | 0.00 | 0.00 | 0.00 | 83 | 1008.3 |
| 20260507082544 | 6 | 300 | 17.7 | 0.0 | 0.00 | 0.00 | 0.00 | 80 | 1008.4 |
| 20260507082039 | 6 | 341 | 16.1 | 0.0 | 0.00 | 0.00 | 0.00 | 79 | 1008.3 |
| 20260507081543 | 6 | 298 | 12.9 | 0.0 | 0.00 | 0.00 | 0.00 | 86 | 1008.1 |
| 20260507081042 | 6 | 317 | 16.1 | 0.0 | 0.00 | 0.00 | 0.00 | 87 | 1008.1 |
| 20260507080537 | 6 | 282 | 20.9 | 0.0 | 0.00 | 0.00 | 0.00 | 88 | 1008.2 |
| 20260507080037 | 6 | 276 | 24.1 | 0.0 | 0.00 | 0.00 | 0.00 | 88 | 1008.1 |
| 20260507075536 | 6 | 283 | 24.1 | 0.0 | 0.00 | 0.00 | 0.00 | 88 | 1008.1 |
| 20260507075036 | 6 | 294 | 22.5 | 0.0 | 0.00 | 0.00 | 0.00 | 90 | 1008.1 |
| 20260507074536 | 6 | 287 | 24.1 | 0.0 | 0.00 | 0.00 | 0.00 | 90 | 1008.2 |
| 20260507074035 | 7 | 279 | 24.1 | 0.0 | 0.00 | 0.00 | 0.00 | 92 | 1008.3 |
| 20260507073534 | 7 | 258 | 22.5 | 0.0 | 0.00 | 0.00 | 0.00 | 92 | 1008.2 |
| 20260507073034 | 6 | 263 | 20.9 | 0.0 | 0.00 | 0.00 | 0.00 | 92 | 1008.2 |
| 20260507072534 | 7 | 273 | 19.3 | 0.0 | 0.00 | 0.00 | 0.00 | 93 | 1008.1 |
| 20260507072034 | 7 | 275 | 22.5 | 0.0 | 0.00 | 0.00 | 0.00 | 92 | 1008.1 |
| 20260507071534 | 7 | 261 | 27.4 | 0.0 | 0.00 | 0.00 | 0.00 | 92 | 1008.2 |
| 20260507071038 | 7 | 271 | 29.0 | 0.0 | 0.00 | 0.00 | 0.00 | 93 | 1008.2 |
| 20260507070533 | 7 | 266 | 29.0 | 0.0 | 0.00 | 0.00 | 0.00 | 93 | 1008.2 |
| 20260507070033 | 7 | 280 | 22.5 | 0.0 | 0.00 | 0.00 | 0.00 | 94 | 1008.1 |
| 20260507065532 | 7 | 281 | 17.7 | 0.0 | 0.00 | 0.00 | 0.00 | 95 | 1008.1 |
| 20260507065032 | 7 | 261 | 19.3 | 0.0 | 0.00 | 0.00 | 0.00 | 95 | 1008.0 |
| 20260507064531 | 7 | 266 | 22.5 | 0.0 | 0.00 | 0.00 | 0.00 | 95 | 1007.9 |
| 20260507064030 | 6 | 273 | 19.3 | 0.0 | 0.00 | 0.00 | 0.00 | 95 | 1007.7 |
| 20260507063528 | 6 | 258 | 9.7 | 0.0 | 0.00 | 0.00 | 0.00 | 95 | 1007.6 |
| 20260507063028 | 6 | 254 | 3.2 | 0.0 | 0.00 | 0.00 | 0.00 | 95 | 1007.6 |
| 20260507062526 | 6 | 219 | 6.4 | 0.0 | 0.00 | 0.00 | 0.00 | 95 | 1007.6 |
| 20260507062026 | 6 | 219 | 6.4 | 0.0 | 0.00 | 0.00 | 0.00 | 95 | 1007.6 |
| 20260507061526 | 6 | 225 | 1.6 | 0.0 | 0.00 | 0.00 | 0.00 | 95 | 1007.6 |
| 20260507061027 | 6 | 150 | 1.6 | 0.0 | 0.00 | 0.00 | 0.00 | 95 | 1007.6 |
| 20260507060525 | 6 | 154 | 1.6 | 0.0 | 0.00 | 0.00 | 0.00 | 95 | 1007.6 |
| 20260507060025 | 7 | 155 | 3.2 | 0.0 | 0.00 | 0.00 | 0.00 | 95 | 1007.7 |
| 20260507055525 | 7 | 153 | 1.6 | 0.0 | 0.00 | 0.00 | 0.00 | 95 | 1007.8 |
| 20260507055027 | 7 | 184 | 1.6 | 0.0 | 0.00 | 0.00 | 0.00 | 95 | 1007.9 |
| 20260507054531 | 7 | 157 | 1.6 | 0.0 | 0.00 | 0.00 | 0.00 | 95 | 1007.9 |
| 20260507054023 | 7 | 157 | 3.2 | 0.0 | 0.00 | 0.00 | 0.00 | 95 | 1007.9 |
| 20260507053523 | 7 | 157 | 3.2 | 0.0 | 0.00 | 0.00 | 0.00 | 95 | 1007.8 |
| 20260507053023 | 7 | 136 | 3.2 | 0.0 | 0.00 | 0.00 | 0.00 | 95 | 1008.0 |
| 20260507052522 | 7 | 130 | 3.2 | 0.0 | 0.00 | 0.00 | 0.00 | 95 | 1007.8 |
| 20260507052022 | 7 | 129 | 3.2 | 0.0 | 0.00 | 0.00 | 0.00 | 95 | 1007.7 |
| 20260507051522 | 7 | 129 | 4.8 | 0.0 | 0.00 | 0.00 | 0.00 | 95 | 1007.5 |
| 20260507051021 | 7 | 140 | 6.4 | 0.0 | 0.00 | 0.00 | 0.00 | 95 | 1007.7 |
| 20260507050521 | 7 | 140 | 6.4 | 0.0 | 0.00 | 0.00 | 0.00 | 94 | 1007.8 |
| 20260507050025 | 7 | 138 | 4.8 | 0.0 | 0.00 | 0.00 | 0.00 | 95 | 1007.9 |
| 20260507045521 | 7 | 136 | 4.8 | 0.0 | 0.00 | 0.00 | 0.00 | 95 | 1008.0 |
| 20260507045020 | 7 | 146 | 3.2 | 0.0 | 0.00 | 0.00 | 0.00 | 95 | 1008.0 |
| 20260507044521 | 7 | 145 | 3.2 | 0.0 | 0.00 | 0.00 | 0.00 | 94 | 1008.0 |
| 20260507044019 | 7 | 88 | 1.6 | 0.0 | 0.00 | 0.00 | 0.00 | 94 | 1007.7 |
| 20260507043519 | 7 | 62 | 3.2 | 0.0 | 0.00 | 0.00 | 0.00 | 94 | 1007.6 |
| 20260507043023 | 7 | 224 | 8.0 | 0.0 | 0.00 | 0.00 | 0.00 | 94 | 1007.9 |
| 20260507042518 | 7 | 244 | 8.0 | 0.0 | 0.00 | 0.00 | 0.00 | 94 | 1008.3 |
| 20260507042016 | 7 | 225 | 4.8 | 0.0 | 0.00 | 0.00 | 0.00 | 94 | 1008.4 |
| 20260507041516 | 7 | 225 | 1.6 | 0.0 | 0.00 | 0.00 | 0.00 | 94 | 1008.5 |
| 20260507041014 | 7 | 220 | 1.6 | 0.0 | 0.00 | 0.00 | 0.00 | 94 | 1008.2 |
| 20260507040515 | 7 | 218 | 0.0 | 0.0 | 0.00 | 0.00 | 0.00 | 94 | 1007.9 |
| 20260507040011 | 7 | 217 | 1.6 | 0.0 | 0.00 | 0.00 | 0.00 | 94 | 1007.7 |
| 20260507035512 | 7 | 217 | 6.4 | 0.0 | 0.00 | 0.00 | 0.00 | 94 | 1007.8 |
| 20260507035011 | 7 | 231 | 11.3 | 0.0 | 0.00 | 0.00 | 0.00 | 94 | 1008.0 |
| 20260507034510 | 7 | 259 | 12.9 | 0.0 | 0.00 | 0.00 | 0.00 | 94 | 1007.9 |
| 20260507034010 | 7 | 240 | 12.9 | 0.0 | 0.00 | 0.00 | 0.00 | 94 | 1008.0 |
| 20260507033512 | 7 | 220 | 12.9 | 0.0 | 0.00 | 0.00 | 0.00 | 94 | 1007.9 |
| 20260507033009 | 7 | 246 | 14.5 | 0.0 | 0.00 | 0.00 | 0.00 | 93 | 1007.9 |
| 20260507032509 | 7 | 263 | 12.9 | 0.0 | 0.00 | 0.00 | 0.00 | 93 | 1007.9 |
| 20260507032008 | 8 | 275 | 11.3 | 0.0 | 0.00 | 0.00 | 0.00 | 93 | 1007.9 |
| 20260507031510 | 8 | 278 | 12.9 | 0.0 | 0.00 | 0.00 | 0.00 | 93 | 1007.8 |
| 20260507031007 | 8 | 279 | 16.1 | 0.0 | 0.00 | 0.00 | 0.00 | 94 | 1007.9 |
| 20260507030508 | 8 | 270 | 17.7 | 0.0 | 0.00 | 0.00 | 0.00 | 93 | 1007.9 |
| 20260507030007 | 8 | 263 | 17.7 | 0.0 | 0.00 | 0.00 | 0.00 | 93 | 1007.9 |
| 20260507025507 | 8 | 246 | 19.3 | 0.0 | 0.00 | 0.00 | 0.00 | 94 | 1008.0 |
| 20260507025005 | 8 | 252 | 17.7 | 0.0 | 0.00 | 0.00 | 0.00 | 94 | 1008.0 |
| 20260507024509 | 8 | 250 | 16.1 | 0.0 | 0.00 | 0.00 | 0.00 | 94 | 1007.9 |
| 20260507024006 | 8 | 269 | 17.7 | 0.0 | 0.00 | 0.00 | 0.00 | 94 | 1007.9 |
| 20260507023503 | 8 | 259 | 17.7 | 0.0 | 0.00 | 0.00 | 0.00 | 94 | 1008.1 |
| 20260507023003 | 8 | 246 | 14.5 | 0.0 | 0.00 | 0.00 | 0.00 | 94 | 1008.3 |
| 20260507022503 | 8 | 250 | 14.5 | 0.0 | 0.00 | 0.00 | 0.00 | 94 | 1008.2 |
| 20260507022003 | 8 | 258 | 14.5 | 0.0 | 0.00 | 0.00 | 0.00 | 94 | 1008.1 |
| 20260507021502 | 8 | 250 | 14.5 | 0.0 | 0.00 | 0.00 | 0.00 | 94 | 1008.0 |
| 20260507021002 | 8 | 261 | 16.1 | 0.0 | 0.00 | 0.00 | 0.00 | 94 | 1008.1 |
| 20260507020502 | 8 | 238 | 17.7 | 0.0 | 0.00 | 0.00 | 0.00 | 94 | 1008.2 |
| 20260507020002 | 8 | 230 | 19.3 | 0.0 | 0.00 | 0.00 | 0.00 | 94 | 1008.1 |
| 20260507015503 | 8 | 249 | 20.9 | 0.0 | 0.00 | 0.00 | 0.00 | 93 | 1008.0 |
| 20260507015001 | 8 | 258 | 19.3 | 0.0 | 0.00 | 0.00 | 0.00 | 93 | 1008.2 |
| 20260507014605 | 8 | 247 | 12.9 | 0.0 | 0.00 | 0.00 | 0.00 | 93 | 1008.2 |
| 20260507014059 | 8 | 234 | 8.0 | 0.0 | 0.00 | 0.00 | 0.00 | 93 | 1008.0 |
| 20260507013600 | 8 | 219 | 4.8 | 0.0 | 0.00 | 0.00 | 0.00 | 92 | 1008.0 |
| 20260507013059 | 9 | 223 | 4.8 | 0.0 | 0.00 | 0.00 | 0.00 | 92 | 1008.0 |
| 20260507012556 | 9 | 222 | 9.7 | 0.0 | 0.00 | 0.00 | 0.00 | 92 | 1007.8 |
| 20260507012056 | 9 | 222 | 12.9 | 0.0 | 0.00 | 0.00 | 0.00 | 92 | 1007.7 |
| 20260507011555 | 9 | 238 | 9.7 | 0.0 | 0.00 | 0.00 | 0.00 | 92 | 1007.9 |
| 20260507011056 | 9 | 223 | 9.7 | 0.0 | 0.00 | 0.00 | 0.00 | 91 | 1007.9 |
| 20260507010554 | 10 | 225 | 8.0 | 0.0 | 0.00 | 0.00 | 0.00 | 91 | 1007.7 |
| 20260507005553 | 10 | 224 | 8.0 | 0.0 | 0.00 | 0.00 | 0.00 | 90 | 1007.5 |
| 20260507005053 | 10 | 221 | 6.4 | 0.0 | 0.00 | 0.00 | 0.00 | 90 | 1007.5 |
| 20260507004602 | 10 | 351 | 6.4 | 0.0 | 0.00 | 0.00 | 0.00 | 88 | 1007.5 |
| 20260507004052 | 10 | 355 | 8.0 | 0.0 | 0.00 | 0.00 | 0.00 | 88 | 1007.5 |
| 20260507003555 | 10 | 355 | 9.7 | 0.0 | 0.00 | 0.00 | 0.00 | 89 | 1007.5 |
| 20260507003053 | 10 | 355 | 9.7 | 0.0 | 0.00 | 0.00 | 0.00 | 89 | 1007.4 |
| 20260507002551 | 10 | 350 | 9.7 | 0.0 | 0.00 | 0.00 | 0.00 | 89 | 1007.3 |
| 20260507002051 | 10 | 344 | 8.0 | 0.0 | 0.00 | 0.00 | 0.00 | 90 | 1007.3 |
| 20260507001552 | 10 | 351 | 6.4 | 0.0 | 0.00 | 0.00 | 0.00 | 91 | 1007.1 |
| 20260507001051 | 9 | 355 | 6.4 | 0.0 | 0.00 | 0.00 | 0.00 | 91 | 1006.8 |
| 20260507000551 | 10 | 315 | 8.0 | 0.0 | 0.00 | 0.00 | 0.00 | 91 | 1006.8 |